Weather past 2 weeks in Willemstad, Curaçao

Now
82 °F

Sprinkles. Scattered clouds.


Feels Like: 89 °F
Forecast: N/A
Wind: 9 mph from East

Location: Hato Airport - Curacao

Current Time: Mar 3, 2015 at 4:44:11 PM

Latest Report: Mar 3, 2015 at 4:00 PM


Visibility: N/A

Pressure: 29.89 "Hg

Humidity: 79%

Dew point: 75 °F

Location of WillemstadLocation

Historic Weather in Willemstad — Graph

°F

Willemstad temperature yesterday

Maximum temperature yesterday: 86 °F (at 11:00 AM)
Minimum temperature yesterday: 77 °F (at 12:00 AM)
Average temperature yesterday: 80 °F

Past Weeks' High & Low Weather Summary

 TemperatureHumidityPressure
High88 °F (Feb 17, 2:00 PM)94% (Mar 1, 10:00 PM)30.07 "Hg (Mar 1, 10:00 PM)
Low73 °F (Mar 1, 10:00 PM)49% (Feb 25, 3:00 PM)29.86 "Hg (Feb 19, 4:00 PM)
Average81 °F73%29.95 "Hg
* Reported Feb 16 3:00 PM — Mar 3 3:00 PM, Willemstad, Weather by CustomWeather, © 2015

Note: Actual official high and low records may vary slightly from our data, if they occured in-between our weather recording intervals... More about our weather records

Advertising

Willemstad weather history for previous 24 hours

 ConditionsComfort  
Time TempWeatherWind HumidityBarometerVisibility
3:00 PM
Tue, Mar 3
81 °FScattered showers. Scattered clouds.6 mph84%29.92 "HgN/A
2:00 PM75 °FMild.14 mph83%29.95 "HgN/A
1:00 PM84 °FScattered clouds.9 mph70%29.95 "HgN/A
12:00 PM84 °FScattered clouds.12 mph66%29.98 "HgN/A
11:00 AM84 °FScattered clouds.8 mph66%30.01 "HgN/A
10:00 AM79 °FScattered showers. Partly sunny.7 mph79%30.01 "HgN/A
9:00 AM77 °FScattered showers. Partly sunny.12 mph79%29.98 "HgN/A
8:00 AM77 °FPartly sunny.5 mphN/A29.98 "HgN/A
7:00 AM77 °FScattered clouds.18 mph79%29.95 "HgN/A
6:00 AM77 °FPassing clouds.16 mph74%29.92 "HgN/A
3:00 AM79 °FPassing clouds.13 mph74%29.92 "HgN/A
2:00 AM79 °FPassing clouds.13 mph74%29.92 "HgN/A
1:00 AM79 °FPassing clouds.12 mph74%29.95 "HgN/A
12:00 AM79 °FPassing clouds.12 mph74%29.98 "HgN/A
11:00 PM
Mon, Mar 2
79 °FPassing clouds.12 mph70%29.98 "HgN/A
10:00 PM79 °FPassing clouds.13 mph74%29.98 "HgN/A
9:00 PM79 °FPassing clouds.13 mph74%29.95 "HgN/A
8:00 PM79 °FPassing clouds.14 mph74%29.92 "HgN/A
7:00 PM79 °FScattered showers. Passing clouds.12 mph79%29.92 "HgN/A
6:00 PM81 °FScattered clouds.13 mph74%29.92 "HgN/A
5:00 PM81 °FScattered showers. Partly sunny.6 mph79%29.92 "HgN/A
4:00 PM79 °FTornado. Partly sunny.10 mph79%29.92 "HgN/A
Weather by CustomWeather, © 2015

See weather overviewHow to use our weather pages